Hourly Data Report for November 10, 2017

CARBERRY CS
MANITOBA

49°54'20.900" N
99°21'26.800" W
383.50 m
5010547
71170
WZE

Download Data

Hourly Data (November 2017)
Hourly Data Report for November 10, 2017
TIME
LST
Temp Definition
°C
Dew Point Definition
°C
Rel Hum Definition
%
Precip. Amount Definition
mm

Wind Dir Definition
10's deg

Wind Spd Definition
km/h
Visibility Definition
km
Stn Press Definition
kPa
Hmdx Definition


Wind Chill Definition


Weather Definition


00:00 -18.2 -20.7 81 0.0 15 10   98.34   -25 LegendNANA
01:00 -17.2 -19.9 80 0.0 14 14   98.25   -25 LegendNANA
02:00 -16.3 -19.1 79 0.0 15 16   98.17   -25 LegendNANA
03:00 -15.7 -18.5 79 0.0 15 14   98.08   -23 LegendNANA
04:00 -14.7 -17.8 77 0.0 15 15   97.98   -23 LegendNANA
05:00 -13.5 -16.8 76 0.0 14 18   97.85   -22 LegendNANA
06:00 -12.1 -16.4 71 0.0 14 20   97.75   -21 LegendNANA
07:00 -11.0 -16.6 63 0.0 15 25   97.62   -20 LegendNANA
08:00 -10.7 -15.8 66 0.0 16 29   97.54   -20 LegendNANA
09:00 -11.1 -13.9 80 0.0 15 34   97.43   -22 LegendNANA
10:00 -10.4 -15.1 68 0.0 15 31   97.31   -20 LegendNANA
11:00 -11.0 -13.6 81 0.0 16 33   97.26   -21 LegendNANA
12:00 -9.9 -13.4 75 0.0 16 32   97.12   -20 LegendNANA
13:00 -9.2 -12.9 74 0.0 16 35   96.95   -19 LegendNANA
14:00 -8.7 -12.2 76 0.0 16 31   96.86   -18 LegendNANA
15:00 -9.0 -11.3 83 0.2 15 26   96.80   -18 LegendNANA
16:00 -8.4 -11.0 82 0.0 15 26   96.68   -17 LegendNANA
17:00 -7.8 -10.8 79 0.0 15 24   96.60   -16 LegendNANA
18:00 -7.4 -10.9 76 0.0 15 25   96.56   -15 LegendNANA
19:00 -7.3 -10.9 75 0.0 15 23   96.53   -15 LegendNANA
20:00 -7.0 -10.6 75 0.0 16 26   96.41   -15 LegendNANA
21:00 -6.9 -10.0 79 0.0 16 23   96.34   -14 LegendNANA
22:00 -6.8 -8.7 86 0.2 15 16   96.29   -13 LegendNANA
23:00 -6.1 -7.5 90 0.4 16 14   96.26   -12 LegendNANA

Notes on Data Quality.

Legend

  • E = Estimated
  • M = Missing
  • NA = Not Available*
  • [empty] = Indicates an unobserved value
Date modified: